Weather History for Homestead AFB, FL

Change the Weather History Date:

Tuesday, October 9, 2012

  Actual Average Record
Temperature  
Mean Temperature 82 °F -  
Max Temperature 88 °F 87 °F 92 °F (1941)
Min Temperature 77 °F 70 °F 60 °F (1940)
Cooling Degree Days 18    
Growing Degree Days 32 (Base 50)    
Moisture  
Dew Point 75 °F    
Average Humidity 84    
Maximum Humidity 94    
Minimum Humidity 63    
Precipitation  
Precipitation 0.75 in - - ()
Sea Level Pressure  
Sea Level Pressure 30.01 in    
Wind  
Wind Speed 5 mph (NE)    
Max Wind Speed 17 mph    
Max Gust Speed 22 mph    
Visibility 9 miles    
Events Rain , Thunderstorm    
Averages and records for this station are not official NWS values.
T = Trace of Precipitation, MM = Missing Value Source: NWS Daily Summary

Daily Weather History Graph

Daily Weather History Graph

Search for Another Location

Airport:

Trip Planner

Search our weather history database for the weather conditions in past years. The results will help you decide how hot, cold, wet, or windy it might be!

Date:

Astronomy

Oct. 09, 2012 Rise Set
Actual Time 7:17 AM EDT 6:59 PM EDT
Civil Twilight 6:54 AM EDT 7:22 PM EDT
Nautical Twilight 6:27 AM EDT 7:49 PM EDT
Astronomical Twilight 6:01 AM EDT 8:15 PM EDT
Moon 1:27 AM EDT (10/9) 2:53 PM EDT (10/9)
Length of Visible Light 12h 28m
Length of Day
11h 41m
Last Quarter, 37% of the Moon is Illuminated
Oct 9
Last Quarter
Oct 15
New
Oct 21
First Quarter
Oct 29
Full
Nov 6
Last Quarter

Hourly Weather History & Observations

Time (EDT) Temp. Heat Index Dew Point Humidity Pressure Visibility Wind Dir Wind Speed Gust Speed Precip Events Conditions
12:55 AM 79.0 °F - 75.9 °F 90% 30.00 in 10.0 mi North 3.5 mph - N/A   Partly Cloudy
1:55 AM 78.1 °F - 75.6 °F 92% 29.98 in 10.0 mi Calm Calm - N/A   Clear
2:55 AM 77.5 °F - 75.4 °F 93% 29.97 in 10.0 mi Calm Calm - N/A   Clear
3:55 AM 77.9 °F - 75.7 °F 93% 29.96 in 10.0 mi Calm Calm - N/A   Clear
4:55 AM 77.9 °F - 75.7 °F 93% 29.97 in 10.0 mi North 3.5 mph - N/A   Clear
5:55 AM 77.7 °F - 75.2 °F 92% 29.97 in 10.0 mi North 4.6 mph - N/A   Clear
6:55 AM 77.0 °F - 74.5 °F 92% 29.98 in 10.0 mi NNE 3.5 mph - N/A   Clear
7:55 AM 77.2 °F - 75.0 °F 93% 30.00 in 10.0 mi Calm Calm - N/A   Clear
8:55 AM 80.2 °F 86.1 °F 76.6 °F 89% 30.01 in 10.0 mi NNE 5.8 mph - N/A   Clear
9:55 AM 83.1 °F 91.9 °F 76.8 °F 81% 30.02 in 10.0 mi North 6.9 mph - N/A   Clear
10:55 AM 84.4 °F 91.7 °F 74.1 °F 71% 30.04 in 10.0 mi North 5.8 mph - N/A   Partly Cloudy
11:55 AM 87.3 °F 94.9 °F 73.4 °F 63% 30.03 in 10.0 mi ENE 8.1 mph - N/A   Clear
12:55 PM 87.8 °F 96.6 °F 74.5 °F 64% 30.02 in 10.0 mi East 6.9 mph - N/A   Clear
1:55 PM 88.5 °F 97.8 °F 74.7 °F 63% 30.00 in 10.0 mi East 9.2 mph - N/A   Clear
2:55 PM 85.5 °F 92.2 °F 73.0 °F 66% 29.99 in 10.0 mi East 8.1 mph - N/A   Clear
3:55 PM 84.6 °F 92.1 °F 74.3 °F 71% 29.98 in 10.0 mi East 6.9 mph - N/A   Partly Cloudy
4:55 PM 83.8 °F 92.1 °F 75.6 °F 76% 29.98 in 10.0 mi East 5.8 mph - N/A   Partly Cloudy
5:55 PM 83.3 °F 91.8 °F 76.1 °F 79% 29.98 in 10.0 mi East 4.6 mph - N/A   Clear
6:55 PM 83.1 °F 91.3 °F 76.1 °F 79% 29.98 in 10.0 mi East 5.8 mph - N/A   Clear
7:55 PM 81.1 °F 88.0 °F 76.6 °F 86% 29.99 in 10.0 mi ENE 3.5 mph - N/A   Partly Cloudy
8:55 PM 81.0 °F 87.3 °F 76.1 °F 85% 30.02 in 10.0 mi Calm Calm - N/A   Clear
9:00 PM 80.6 °F 86.2 °F 75.2 °F 84% 30.01 in 10.0 mi NE 10.4 mph - N/A Rain , Thunderstorm Light Thunderstorms and Rain
9:05 PM 80.6 °F 86.2 °F 75.2 °F 84% 30.02 in 5.0 mi NNE 17.3 mph 21.9 mph N/A Rain , Thunderstorm Thunderstorms and Rain
9:14 PM 78.8 °F - 73.4 °F 83% 30.04 in 5.0 mi NNW 9.2 mph 21.9 mph N/A Rain , Thunderstorm Heavy Thunderstorms and Rain
9:27 PM 77.0 °F - 73.4 °F 89% 30.03 in 2.0 mi ENE 15.0 mph - N/A Rain , Thunderstorm Heavy Thunderstorms and Rain
9:42 PM 77.0 °F - 73.4 °F 89% 30.04 in 7.0 mi East 8.1 mph - N/A Rain , Thunderstorm Light Rain Showers
9:55 PM 77.0 °F - 73.2 °F 88% 30.04 in 9.0 mi SE 8.1 mph - 0.74 in Rain Light Rain
9:58 PM 77.0 °F - 73.4 °F 89% 30.04 in 10.0 mi ESE 5.8 mph - N/A Rain Light Rain
10:11 PM 78.8 °F - 75.2 °F 89% 30.04 in 10.0 mi SE 4.6 mph - N/A   Partly Cloudy
10:55 PM 77.2 °F - 74.7 °F 92% 30.04 in 10.0 mi WNW 4.6 mph - 0.01 in   Clear
11:46 PM 77.0 °F - 75.2 °F 94% 30.04 in 10.0 mi NNE 6.9 mph - N/A Rain Light Rain
11:55 PM 77.5 °F - 75.4 °F 93% 30.04 in 10.0 mi NE 6.9 mph - 0.00 in Rain Light Rain